Welcome to the New NWS' Forecast!
Most changes are behind the scenes, but click here for differences you might notice.
Latest weather observations around

Seattle, Seattle Boeing Field (KBFI)

Using International System of Units (Switch to English Units)
Date/ Time (PST) Wind (kph) Vis. (km) Weather Sky Cond. Temp (°C) Rel. Humidity Wind Chill (°C) Heat Index (°C) Pressure Precip. (cm)
Air Dwpt 6 hour Altimeter (hPa) Sea level (hPa) 1 hr 3 hr 6 hr
Max Min
Nov 13 13:53 SSE 21 16.09 Clear CLR 11 1     48%     1027.8 1027.6      
Nov 13 12:53 SE 17 16.09 Clear   12 3     54%     1027.8 1027.7      
Nov 13 11:53 SSE 17 16.09 Mostly Cloudy FEW180 BKN250 11 3     59%     1028.1 1028.1      
Nov 13 10:53 SSE 15 16.09 Clear CLR 11 3     57%     1028.8 1028.6      
Nov 13 09:53 SE 15 16.09 Clear CLR 9 1     56% 7   1028.8 1028.7      
Nov 13 08:53 SSE 17 16.09 Partly Cloudy SCT200 6 1     73% 2   1028.8 1028.6      
Nov 13 07:53 Calm 16.09 Partly Cloudy SCT250 4 1     79%     1028.8 1028.7      
Nov 13 06:53 SE 11 16.09 Partly Cloudy SCT250 3 -1     78% 0   1028.5 1028.3      
Nov 13 05:53 S 8 16.09 Clear CLR 3 -1     76% 1   1028.1 1028.1      
Nov 13 04:53 SSE 8 16.09 Clear CLR 5 -2     62% 3   1027.8 1027.8      
Nov 13 03:53 SE 5 16.09 Clear CLR 5 -2     62% 4   1028.1 1027.9      
Nov 13 02:53 SE 8 16.09 Clear CLR 6 -3     55% 4   1027.4 1027.5      
Nov 13 01:53 Calm 16.09 Clear CLR 6 -3     53%     1027.8 1027.7      
Nov 13 00:53 Calm 16.09 Clear CLR 6 -3     53%     1028.1 1027.9      
Nov 12 23:53 SE 5 16.09 Clear CLR 6 -2     59% 5   1028.1 1028.1      
Nov 12 22:53 Calm 16.09 Clear CLR 4 -2     62%     1028.1 1028.1      
Nov 12 21:53 Calm 16.09 Mostly Cloudy BKN250 7 -3     51%     1028.5 1028.3      
Nov 12 20:53 Calm 16.09 Clear CLR 8 -4     42%     1027.8 1027.7      
Nov 12 19:53 SE 8 16.09 Mostly Cloudy BKN250 8 -3     44% 7   1028.1 1028      
Nov 12 18:53 SSE 9 16.09 Mostly Cloudy BKN250 11 -4     35%     1028.1 1028.1      
Nov 12 17:53 SSE 9 16.09 Mostly Cloudy BKN250 10 -3     41%     1028.1 1028.1      
Nov 12 16:53 Calm 16.09 Mostly Cloudy BKN250 11 -1     44%     1028.1 1028.1      
Nov 12 15:53 NW 8 16.09 Mostly Cloudy BKN250 13 -1     37%     1028.1 1028.1      
Nov 12 14:53 5 16.09 Partly Cloudy SCT250 15 -3     29%     1028.1 1027.8      
Nov 12 13:53 WNW 5 16.09 Partly Cloudy SCT200 14 1     39%     1028.5 1028.5      
Nov 12 12:53 NW 8 16.09 Mostly Cloudy BKN200 12 3     53%     1029.1 1029.1      
Nov 12 11:53 NW 8 16.09 Mostly Cloudy BKN200 11 1     50%     1029.1 1029.2      
Nov 12 10:53 NW 9 16.09 Mostly Cloudy BKN200 9 2     59% 8   1029.8 1029.6      
Nov 12 09:53 Calm 16.09 Mostly Cloudy BKN200 8 4     76%     1030.1 1030.1      
Nov 12 08:53 Calm 16.09 Mostly Cloudy BKN200 4 2     86%     1030.5 1030.5      
Nov 12 07:53 Calm 16.09 Clear CLR 3 1     89%     1030.5 1030.5      
Nov 12 06:53 Calm 16.09 Clear CLR 2 0     88%     1030.1 1030.1      
Nov 12 05:53 Calm 16.09 Clear CLR 1 -1     92%     1030.1 1030.2      
Nov 12 04:53 Calm 16.09 Clear CLR 2 0     88%     1030.1 1030.1      
Nov 12 03:53 Calm 16.09 Clear CLR 2 0     88%     1030.5 1030.2      
Nov 12 02:53 Calm 16.09 Clear CLR 2 0     88%     1030.8 1030.6      
Nov 12 01:53 Calm 16.09 Clear CLR 3 1     89%     1030.8 1030.8      
Nov 12 00:53 Calm 16.09 Clear CLR 3 1     89%     1031.2 1031      
Nov 11 23:53 Calm 16.09 Clear CLR 4 2     86%     1031.8 1031.8      
Nov 11 22:53 Calm 16.09 Clear CLR 2 1     89%     1031.8 1031.7      
Nov 11 21:53 Calm 16.09 Clear CLR 5 2     82%     1031.5 1031.3      
Nov 11 20:53 NW 8 16.09 Clear CLR 6 3     79% 5   1031.5 1031.4      
Nov 11 19:53 NNW 9 16.09 Clear CLR 7 2     73% 5   1031.5 1031.3      
Nov 11 18:53 Calm 16.09 Clear CLR 6 2     76%     1031.5 1031.3      
Nov 11 17:53 NNW 5 16.09 Clear CLR 8 2     68% 7   1030.8 1030.8      
Nov 11 16:53 8 16.09 Mostly Clear FEW200 8 2     63% 7   1030.8 1030.8      
Nov 11 15:53 NNW 9 16.09 Mostly Cloudy BKN200 10 2     56%     1030.5 1030.5      
Nov 11 14:53 WNW 9 16.09 Mostly Cloudy BKN200 9 3     66% 8   1030.8 1030.6      
Nov 11 13:53 N 9 16.09 Partly Cloudy SCT200 10 3     61%     1030.8 1030.8      
Nov 11 12:53 9 16.09 Partly Cloudy SCT200 10 3     63%     1030.8 1030.8      
Nov 11 11:53 N 13 16.09 Partly Cloudy SCT200 9 3     63% 7   1031.5 1031.3      
Nov 11 10:53 NNE 9 16.09 Partly Cloudy SCT200 8 3     71% 6   1032.2 1031.9      
Nov 11 09:53 5 16.09 Mostly Clear FEW006 6 3     79% 5   1031.8 1031.7      
Nov 11 08:53 8 16.09 Partly Cloudy SCT004 5 2     79% 3   1031.8 1031.9      
Nov 11 07:53 Calm 16.09 Partly Cloudy SCT004 4 2     86%     1031.5 1031.5      
Nov 11 06:53 Calm 16.09 Partly Cloudy SCT004 3 2     89%     1031.5 1031.3      
Nov 11 06:24 Calm 16.09 Partly Cloudy SCT004 3 3     97%     1031.5        
Nov 11 05:53 5 2.41 Fog/Mist OVC004 4 3     93% 3   1031.2 1031.2      
Nov 11 05:23 5 1.21 Fog/Mist OVC003 4 3     93% 3   1031.2        
Nov 11 04:53 SE 5 0.2 Fog VV002 3 3     97% 2   1030.8 1030.8      
Nov 11 03:53 Calm 0.1 Fog VV002 3 2     96%     1030.8 1030.7      
Nov 11 02:53 SE 8 1.21 Fog/Mist VV002 2 2     96% 0   1031.2 1031.1      
Nov 11 02:22 SSE 8 1.61 Fog/Mist OVC004 2 1     92% -1   1031.2        
Nov 11 01:53 SE 9 6.44 Fog/Mist BKN007 2 1     92% -1   1031.2 1031.2      
Nov 11 00:59 SE 5 12.87 Partly Cloudy SCT011 3 2     89% 2   1031.5        
Nov 11 00:53 SE 5 12.87 Mostly Clear FEW010 3 2     89% 2   1031.8 1031.6      
Nov 10 23:53 N 5 16.09 Partly Cloudy SCT022 6 3     85% 5   1031.5 1031.5      
Nov 10 22:53 Calm 16.09 Cloudy OVC022 7 4     82%     1031.5 1031.5      
Nov 10 21:53 5 16.09 Mostly Cloudy BKN022 7 4     82% 6   1031.2 1031.2      
Nov 10 21:05 NE 5 16.09 Mostly Cloudy BKN021 7 4     82% 6   1031.2        
Nov 10 20:53 Calm 16.09 Mostly Clear FEW020 6 3     82%     1031.2 1030.9      
Nov 10 19:53 Calm 16.09 Clear CLR 7 3     79%     1030.8 1030.5      
Nov 10 18:53 N 5 16.09 Clear CLR 7 3     76% 6   1030.1 1030.1      
Nov 10 17:53 Calm 16.09 Clear CLR 8 3     73%     1030.1 1029.9      
Nov 10 16:53 Calm 16.09 Clear CLR 8 3     71%     1029.5 1029.5      
Nov 10 15:53 NNE 9 16.09 Mostly Clear FEW024 10 3     63%     1029.8 1029.7      
Nov 10 14:53 9 16.09 Mostly Clear FEW024 10 4     66%     1030.1 1030      
Nov 10 13:53 N 11 16.09 Partly Cloudy SCT024 11 3     61%     1030.1 1030      
Nov 10 12:53 NNW 9 16.09 Mostly Cloudy BKN024 9 4     71% 8   1029.8 1029.8      
Nov 10 11:53 NE 9 16.09 Partly Cloudy SCT013 9 4     71% 8   1029.8 1029.7      
Nov 10 10:53 5 16.09 Mostly Cloudy BKN012 8 4     76% 7   1030.1 1030.2      
Nov 10 09:53 5 16.09 Mostly Cloudy FEW010 BKN020 8 4     79% 7   1029.8 1029.8      
Nov 10 08:53 ENE 9 16.09 Cloudy FEW007 BKN010 OVC014 7 4     82% 5   1029.5 1029.5      
Nov 10 07:53 Calm 12.87 Cloudy OVC011 6 4     89%     1029.1 1029      
Nov 10 06:53 Calm 14.48 Cloudy OVC011 5 4     93%     1028.1 1028.1      
Nov 10 05:53 Calm 8.05 Fog/Mist OVC010 5 3     89%     1028.1 1027.9      
Nov 10 04:53 Calm 11.27 Cloudy BKN008 OVC060 4 3     89%     1028.1 1027.9      
Nov 10 04:35 Calm 11.27 Mostly Cloudy BKN008 BKN060 4 3     93%     1027.8        
Nov 10 03:53 SE 9 12.87 Cloudy FEW005 BKN030 OVC060 4 3     89% 2   1027.4 1027.4 0   0
Nov 10 02:53 SE 8 12.87 Cloudy FEW005 BKN030 OVC065 4 3     93% 3   1027.8 1027.7      
Nov 10 01:53 SSE 11 8.05 Fog/Mist FEW008 OVC045 4 3     93% 2   1027.8 1027.5 0    
Nov 10 00:53 SSE 9 11.27 Cloudy FEW007 BKN044 OVC055 4 3     93% 2   1027.4 1027.5      
Nov 09 23:53 SSE 8 14.48 Cloudy FEW036 OVC060 4 3     93% 3   1027.4 1027.3      
Nov 09 22:53 S 5 14.48 Cloudy OVC060 4 3     93% 3   1027.4 1027.3      
Nov 09 21:53 Calm 16.09 Cloudy OVC055 5 4     93%     1027.1 1027.1      
Nov 09 20:53 Calm 16.09 Mostly Cloudy SCT013 BKN040 5 3     86%     1027.1 1026.9      
Nov 09 19:53 Calm 16.09 Mostly Cloudy BKN060 6 3     85%     1026.8 1026.7      
Nov 09 18:53 Calm 16.09 Cloudy BKN028 OVC049 6 3     82%     1026.4 1026.4      
Nov 09 17:53 Calm 16.09 Cloudy BKN028 OVC049 6 3     82%     1026.1 1026.1      
Nov 09 16:53 Calm 16.09 Cloudy BKN028 OVC049 7 3     79%     1026.1 1026      
Nov 09 15:53 Calm 16.09 Cloudy SCT012 OVC030 6 3     79%     1026.1 1026     0
Nov 09 14:53 SSE 8 16.09 Cloudy OVC031 6 3     82% 5   1025.7 1025.6      
Nov 09 13:53 SE 8 16.09 Cloudy SCT012 OVC042 6 3     79% 5   1025.7 1025.8      
Nov 09 12:53 Calm 16.09 Cloudy SCT008 OVC048 6 3     82%     1026.1 1025.8 0 0  
Nov 09 12:25 Calm 16.09 Cloudy SCT008 BKN048 OVC070 6 4     89%     1026.1   0    
Nov 09 11:53 SSE 11 8.05 Light Rain and Fog/Mist BKN006 BKN027 OVC070 5 3     89% 2   1025.7 1025.5 0    
Nov 09 11:33 SSE 11 9.66 Light Rain and Fog/Mist BKN008 BKN048 OVC055 5 3     89% 2   1026.4   0    
Nov 09 10:53 Calm 9.66 Light Rain SCT012 OVC047 5 2     82%     1026.8 1026.8 0    
Nov 09 09:53 SSE 5 16.09 Cloudy SCT060 OVC080 4 1     82% 3   1026.1 1026      
Nov 09 08:53 Calm 16.09 Cloudy FEW075 OVC100 3 1     82%     1026.4 1026.3      
Nov 09 07:53 SE 8 16.09 Cloudy SCT090 OVC110 2 1     89% 0   1026.4 1026.4      
Nov 09 06:53 SE 9 16.09 Cloudy OVC160 2 0     88% -1   1026.8 1026.7      
Nov 09 05:53 SE 9 16.09 Clear CLR 1 0     92% -2   1027.4 1027.5      
Nov 09 04:53 SSE 8 11.27 Patchy Fog FEW003 SCT150 1 -1     92% -2   1028.1 1028      
Nov 09 03:53 SE 13 14.48 Patchy Fog FEW003 1 -1     92% -3   1028.8 1028.6      
Nov 09 02:53 SSE 8 16.09 Patchy Fog SCT003 2 0     88% -1   1029.5 1029.4      
Nov 09 02:19 SE 5 16.09 Patchy Fog SCT003 1 -1     88% -1   1030.1        
Nov 09 01:53 SE 5 9.66 Patchy Fog CLR 1 1     96% -1   1030.1 1030      
Nov 09 00:53 Calm 16.09 Clear CLR 3 1     89%     1031.2 1031      
Nov 08 23:53 Calm 16.09 Clear CLR 2 1     89%     1031.5 1031.5      
Nov 08 22:53 Calm 16.09 Clear CLR 4 1     82%     1032.2 1032.1      
Nov 08 21:53 Calm 16.09 Clear CLR 4 1     79%     1032.5 1032.4      
Nov 08 20:53 Calm 16.09 Clear CLR 6 2     76%     1032.9 1032.7      
Nov 08 19:53 Calm 16.09 Clear CLR 7 2     70%     1033.2 1033      
Nov 08 18:53 N 5 16.09 Clear CLR 7 2     68% 6   1033.5 1033.4      
Nov 08 17:53 NNE 5 16.09 Clear CLR 8 2     63% 8   1033.9 1033.6      
Nov 08 16:53 Calm 16.09 Mostly Clear FEW200 8 2     65%     1033.5 1033.5      
Nov 08 15:53 NW 9 16.09 Clear CLR 9 3     63% 8   1033.9 1033.9      
Nov 08 14:53 5 16.09 Clear CLR 10 2     58%     1033.9 1033.9      
Nov 08 13:53 ENE 9 16.09 Mostly Clear FEW030 10 2     58%     1034.2 1034.2      
Nov 08 12:53 SSE 5 16.09 Mostly Clear FEW020 9 4     69% 9   1034.9 1034.7      
Nov 08 11:53 NE 8 16.09 Partly Cloudy FEW008 SCT013 8 3     71% 7   1035.6 1035.4      
Nov 08 10:53 Calm 16.09 Mostly Cloudy SCT008 BKN011 7 3     79%     1035.9 1035.8      
Nov 08 09:53 Calm 9.66 Fog/Mist OVC008 6 3     85%     1035.9 1035.6      
Nov 08 08:53 S 5 9.66 Fog/Mist OVC008 5 3     86% 4   1035.6 1035.5      
Nov 08 08:28 SSE 8 9.66 Fog/Mist OVC008 4 3     89% 3   1035.6        
Nov 08 08:21 S 5 12.87 Cloudy OVC010 4 3     89% 3   1035.6        
Nov 08 07:53 SSE 9 16.09 Cloudy SCT006 OVC008 4 3     89% 2   1035.6 1035.4      
Nov 08 06:53 SE 5 8.05 Fog/Mist OVC007 3 2     92% 1   1035.2 1035      
Nov 08 06:43 ESE 8 8.05 Fog/Mist OVC007 2 2     96% 0   1035.2        
Nov 08 05:53 SE 8 3.22 Fog/Mist OVC004 2 2     96% 0   1034.9 1034.9      
Nov 08 04:53 S 5 0.4 Fog VV002 2 2     100% 0   1035.2 1035.1      
Nov 08 04:10 Calm 0.4 Fog VV002 2 1     96%     1034.9        
Nov 08 03:55 Calm 2.41 Fog/Mist BKN003 3 2     92%     1034.9        
Nov 08 03:53 Calm 4.83 Fog/Mist BKN003 3 1     89%     1034.9 1034.8      
Nov 08 03:50 ESE 5 14.48 Mostly Cloudy BKN003 2 1     93% 1   1034.9        
Nov 08 02:55 SSE 5 11.27 Mostly Clear FEW003 3 1     89% 1   1034.6        
Nov 08 02:53 SSE 5 11.27 Clear CLR 2 1     92% 1   1034.6 1034.6      
Nov 08 01:53 Calm 11.27 Clear CLR 3 1     89%     1034.6 1034.5      
Nov 08 00:53 Calm 14.48 Clear CLR 3 1     89%     1034.2 1034.2      
Nov 07 23:53 Calm 16.09 Clear CLR 3 2     89%     1033.9 1033.9      
Nov 07 22:53 Calm 16.09 Clear CLR 3 1     85%     1033.5 1033.5      
Nov 07 21:53 Calm 16.09 Clear CLR 6 3     82%     1033.2 1032.9      
Nov 07 20:53 Calm 16.09 Clear CLR 6 2     79%     1032.5 1032.4      
Nov 07 19:53 Calm 16.09 Clear CLR 6 2     73%     1032.2 1031.9      
Nov 07 18:53 Calm 16.09 Clear CLR 8 2     63%     1031.8 1031.7      
Nov 07 17:53 Calm 16.09 Clear CLR 9 2     61%     1031.5 1031.5      
Nov 07 16:53 NNE 8 16.09 Clear CLR 10 3     61%     1031.2 1031.1      
Nov 07 15:53 N 5 16.09 Mostly Clear FEW032 11 3     59%     1031.2 1031      
Nov 07 14:53 NNE 8 16.09 Partly Cloudy SCT032 11 3     59%     1031.2 1030.9      
Nov 07 13:53 9 16.09 Partly Cloudy SCT032 11 3     59%     1030.8 1030.6      
Nov 07 12:53 5 16.09 Mostly Cloudy FEW020 SCT033 BKN200 11 3     59%     1030.8 1030.6      
Nov 07 12:10 NW 11 16.09 Mostly Cloudy SCT025 BKN035 11 4     63%     1030.5        
Nov 07 11:53 NW 13 16.09 Mostly Cloudy BKN025 BKN035 11 5     68%     1030.5 1030.5      
Nov 07 10:53 N 9 16.09 Mostly Cloudy SCT019 BKN037 10 5     71%     1030.5 1030.3      
Nov 07 09:53 Calm 16.09 Cloudy BKN011 BKN026 OVC035 10 6     77%     1029.8 1029.5      
Nov 07 08:53 NNE 5 16.09 Cloudy BKN018 OVC027 9 6     80% 9   1029.1 1029      
Nov 07 07:53 NE 5 16.09 Cloudy SCT014 BKN025 OVC036 9 6     83% 8   1028.5 1028.4      
Nov 07 07:43 5 16.09 Cloudy SCT014 BKN025 OVC036 9 6     80% 9   1028.5        
Nov 07 07:13 Calm 16.09 Cloudy FEW021 SCT036 OVC049 9 7     86%     1028.1        
Nov 07 06:53 Calm 16.09 Cloudy BKN020 BKN026 OVC048 9 7     83%     1028.1 1027.9      
Nov 07 05:53 Calm 16.09 Cloudy FEW020 OVC037 9 6     80%     1027.4 1027.5      
Nov 07 04:53 Calm 16.09 Cloudy FEW026 BKN034 OVC041 9 7     83%     1027.1 1027.1      
Nov 07 04:32 Calm 16.09 Cloudy FEW011 BKN033 OVC042 9 7     86%     1027.1        
Nov 07 03:53 Calm 16.09 Cloudy FEW012 SCT018 OVC026 9 7     86%     1026.4 1026.4     0
Nov 07 02:53 Calm 16.09 Cloudy BKN016 OVC027 9 7     86%     1026.4 1026.4      
Nov 07 01:53 Calm 16.09 Cloudy BKN022 BKN033 OVC065 8 7     90%     1026.1 1026 0    
Nov 07 01:24 Calm 8.05 Light Rain FEW022 FEW029 OVC037 8 6     83%     1026.1   0    
Nov 07 01:09 Calm 6.44 Rain and Fog/Mist FEW022 OVC029 8 7     90%     1026.1   0    
Nov 07 00:53 SE 5 16.09 Cloudy OVC031 8 6     86% 8   1025.7 1025.6 0 0  
Nov 06 23:53 SE 5 16.09 Cloudy FEW020 OVC043 8 6     89% 7   1025.4 1025.4      
Nov 06 22:53 SSE 8 16.09 Mostly Cloudy BKN031 8 6     86% 7   1025.1 1025.1 0    
Nov 06 21:53 ESE 5 16.09 Light Rain BKN030 OVC045 9 6     80% 9   1024.7 1024.8 0   0
Nov 06 20:53 ESE 8 12.87 Light Rain SCT030 BKN047 OVC060 10 7     80%     1024.4 1024.2 0    
Nov 06 19:53 ESE 9 16.09 Mostly Cloudy FEW010 SCT030 BKN080 10 7     80%     1023.7 1023.7      
Nov 06 18:53 SSE 8 16.09 Cloudy FEW030 BKN043 OVC100 10 7     83%     1023.4 1023.1   0  
Nov 06 17:53 Calm 16.09 Cloudy FEW030 BKN043 OVC100 11 7     74%     1023 1022.9 0    
Nov 06 16:53 NNW 9 16.09 Mostly Cloudy SCT034 BKN045 BKN085 12 6     66%     1023 1022.9      
Nov 06 15:53 Calm 16.09 Mostly Cloudy SCT030 BKN080 12 6     64%     1022.7 1022.8      
Nov 06 14:53 8 16.09 Partly Cloudy SCT033 13 6     64%     1023 1023      
Nov 06 13:53 8 16.09 Partly Cloudy SCT027 13 6     62%     1023.4 1023.2      
Nov 06 12:53 SW 13 16.09 Mostly Clear FEW024 12 6     69%     1023.4 1023.4      
Nov 06 11:53 9 16.09 Cloudy OVC021 11 6     71%     1023.7 1023.7      
Nov 06 10:53 S 11 16.09 Cloudy OVC018 10 6     77%     1024.1 1023.8      
Nov 06 09:53 S 9 16.09 Cloudy OVC018 10 6     77%     1023.7 1023.7      
Nov 06 08:53 S 8 16.09 Cloudy OVC017 10 6     77%     1023.4 1023.3      
Nov 06 07:53 S 13 16.09 Cloudy OVC018 9 6     80% 7   1023 1022.8      
Nov 06 06:53 SSE 9 16.09 Cloudy OVC020 9 6     80% 8   1022.7 1022.5      
Nov 06 05:53 S 9 16.09 Mostly Cloudy BKN023 BKN060 9 6     83% 7   1022 1022.1      
Nov 06 04:53 SSE 13 16.09 Mostly Cloudy BKN023 BKN060 9 7     86% 7   1021.7 1021.7      
Nov 06 03:53 SE 9 16.09 Mostly Cloudy BKN022 9 7     86% 8   1021.7 1021.5     0
Nov 06 02:53 SE 8 16.09 Mostly Cloudy BKN022 9 7     89% 8   1021.3 1021.1      
Nov 06 01:53 SSE 9 16.09 Mostly Cloudy SCT019 BKN042 9 7     86% 7   1020.7 1020.7 0    
Nov 06 01:46 SSE 11 16.09 Partly Cloudy FEW019 SCT042 9 7     86% 7   1020.7   0    
Nov 06 00:53 SE 9 16.09 Cloudy OVC019 10 7     80%     1020.7 1020.7      
Nov 05 23:53 S 9 16.09 Cloudy BKN017 OVC024 10 7     80%     1020.3 1020.1      
Nov 05 22:53 S 8 16.09 Mostly Cloudy FEW022 BKN100 10 7     80%     1020 1019.8      
Nov 05 21:53 S 13 16.09 Mostly Cloudy SCT065 BKN090 9 6     80% 7   1019.3 1019.3      
Nov 05 20:53 S 8 16.09 Partly Cloudy SCT035 SCT200 9 6     80% 8   1018.6 1018.6      
Nov 05 19:53 S 9 16.09 Clear CLR 9 6     80% 8   1018.3 1018.1      
Nov 05 18:53 SSE 11 16.09 Partly Cloudy SCT045 11 7     79%     1018 1017.7      
Nov 05 17:53 S 9 16.09 Mostly Cloudy SCT045 BKN085 11 7     77%     1017.6 1017.5      
Nov 05 16:53 SSW 9 16.09 Mostly Cloudy SCT045 BKN085 12 7     69%     1017.3 1017.2      
Nov 05 15:53 S 11 16.09 Mostly Cloudy SCT042 BKN070 13 7     69%     1017.3 1017.3     0
Nov 05 14:53 SSW 9 16.09 Cloudy BKN033 BKN065 OVC085 13 8     72%     1017.3 1017.2 0    
Nov 05 13:53 11 16.09 Cloudy BKN023 OVC053 13 8     72%     1017.3 1017.1      
Nov 05 12:53 S 13 16.09 Cloudy BKN023 OVC053 13 8     69%     1017.6 1017.6      
Nov 05 11:53 SSW 15 16.09 Mostly Cloudy BKN018 BKN030 13 8     72%     1017.6 1017.6      
Nov 05 10:53 SSW 11 16.09 Mostly Cloudy BKN018 BKN026 13 8     72%     1018.3 1018.1      
Nov 05 09:53 SSW 15 16.09 Mostly Cloudy BKN017 BKN090 12 8     74%     1017.6 1017.5      
Nov 05 08:53 S 11 16.09 Mostly Cloudy BKN017 12 8     77%     1017.6 1017.5      
Nov 05 07:53 S 11 16.09 Cloudy BKN018 OVC025 11 8     80%     1017.3 1017.3      
Nov 05 06:53 S 9 16.09 Cloudy BKN016 OVC024 11 8     80%     1017.3 1017.2      
Nov 05 05:53 S 13 16.09 Cloudy SCT016 OVC025 12 8     77%     1017.3 1017.1      
Nov 05 04:53 S 11 16.09 Cloudy FEW017 OVC022 12 8     80%     1016.9 1016.9      
Nov 05 03:53 SSW 9 16.09 Cloudy OVC016 12 8     77%     1017.3 1017.2      
Nov 05 02:53 S 9 16.09 Cloudy OVC018 12 8     80%     1017.6 1017.4      
Nov 05 01:53 S 11 16.09 Cloudy OVC020 12 8     80%     1017.6 1017.7      
Nov 05 00:53 SSW 15 16.09 Cloudy OVC021 12 8     74%     1018 1017.8      
May 15 05:53 SSW 9 16.09 Cloudy OVC008 13 11     86%     1013.2 1013.1      
May 14 14:53 NNW 13 16.09 Clear CLR 28 11     33%   27 1011.9 1012      
May 13 17:53 NW 11 16.09 Clear CLR 27 8     30%   27 1011.5 1011.5      
May 13 11:53 Calm 16.09 Clear CLR 22 12     55%   21 1014.2 1014      
May 13 10:53 9 16.09 Clear CLR 21 12     57%     1014.2 1014.2      
May 13 08:53 ENE 5 16.09 Clear CLR 18 11     63%     1015.2 1015      
May 12 01:53 SE 9 16.09 Clear CLR 12 8     80%     1022.4 1022.2      
May 12 00:53 Calm 16.09 Clear CLR 14 8     67%     1022.4 1022.4      
May 11 17:53 5 16.09 Partly Cloudy SCT046 19 8     47%     1022.7 1022.6      
Jun 12 03:53 SSE 13 16.09 Mostly Cloudy BKN060 12 11     93%     1015.9 1015.9      
Jun 12 02:53 SSE 11 16.09 Mostly Cloudy BKN055 12 11     90%     1015.9 1015.7      
Jun 11 22:53 Calm 16.09 Clear CLR 16 9     64%     1015.6 1015.6      
Jun 11 14:53 NW 13 16.09 Clear   21 9     47%     1015.9 1015.7      
Jun 11 01:53 Calm 16.09 Mostly Cloudy BKN085 14 8     69%     1014.9 1014.9      
Jun 10 23:53 Calm 16.09 Cloudy OVC075 15 8     64%     1014.2 1014.1      
Jun 10 15:53 NNW 11 16.09 Clear   18 7     47%     1010.8 1010.7      
Jun 08 08:44 SSE 13 16.09 Light Rain SCT007 BKN038 OVC095 14 14     100%     1004.4   0    
Jun 07 14:53 9 16.09 Cloudy SCT140 OVC250 26 12     42%   26 1005.4 1005.3      
Jun 06 00:53 5 16.09 Clear CLR 16 8     60%     1017.3 1017.2      
Jun 05 20:53 NW 9 16.09 Clear CLR 18 8     50%     1017.6 1017.5      
Jun 05 19:53 NW 9 16.09 Mostly Cloudy BKN200 19 8     49%     1017.6 1017.5      
Jun 05 15:53 WNW 15 16.09 Mostly Cloudy BKN250 22 7     39%   21 1018.6 1018.4